Location: Rounton
(54.4000°N, 1.3500°W)
Time: 22:26:23
(UTC+00:00)

Vanguard 1 - Pass Details

Date: 29 November 2021
Orbit: 652 x 3830 km, 34.2° (Epoch: 16 January)

Event Time Altitude Azimuth Distance (km) Brightness Sun altitude
Rises 23:09:33 0° 197° (SSW) 7,577 - -56.2°
Reaches altitude 10° 23:16:21 10° 185° (S) 6,810 - -56.5°
Maximum altitude 23:31:45 23° 143° (SE) 5,775 - -57.0°
Exits shadow 23:45:04 11° 103° (ESE) 6,183 14.0 -57.2°
Drops below altitude 10° 23:45:48 10° 101° (E) 6,245 14.0 -57.2°
Sets 23:51:29 0° 89° (E) 6,846 14.4 -57.2°
